Theta_e
343 342 340 347 345 344 344 347 348 349 349 349 350 350 350 350 351 353 353 359 362 364 364 365 365 365 363 360 360 360 360 361 362 359 359 358 357 357 356 356 358 361 359 359 362 361 364 367 365 364 366 363 369 373 376 374 371 373 374 372 369 369 367
339 341 342 344 346 346 347 349 345 349 350 351 351 352 351 351 352 352 354 360 362 364 366 365 365 365 365 363 361 363 362 360 362 363 359 360 360 359 357 358 356 359 361 359 359 361 362 362 365 365 366 366 364 373 372 375 373 372 371 372 367 368 368
338 340 341 342 344 345 349 346 349 348 350 348 349 349 350 353 354 355 356 359 363 365 366 365 366 365 366 365 363 364 363 360 360 359 358 355 358 355 358 359 357 355 357 359 362 360 362 363 365 365 364 365 362 365 372 374 372 373 372 376 369 369 369
336 338 339 340 343 346 350 350 348 348 350 349 349 350 351 353 354 355 357 360 361 363 364 364 365 363 365 365 363 364 364 363 360 356 356 354 355 356 356 356 359 355 356 356 358 360 357 361 362 365 365 366 365 364 365 367 367 370 371 377 367 368 371
335 338 338 339 339 342 346 347 347 350 352 353 352 353 355 354 354 354 356 358 357 359 362 362 361 361 364 365 361 362 364 363 360 357 356 355 357 357 355 353 354 354 354 355 357 361 362 362 360 363 365 366 364 365 364 365 367 371 370 375 368 365 365
331 334 337 337 337 338 342 346 346 349 350 349 350 352 354 354 353 353 354 356 358 359 361 362 360 362 363 363 361 359 365 365 364 361 357 356 356 353 354 354 352 353 351 354 354 356 359 360 359 360 361 361 360 358 360 362 363 361 368 373 367 365 363
330 332 335 337 337 338 341 346 348 349 351 347 349 349 351 351 352 350 354 354 356 358 359 360 359 360 364 362 362 362 364 364 364 361 357 355 355 354 355 355 356 353 352 355 354 355 356 359 359 360 359 358 359 357 360 362 362 363 366 367 367 367 365
329 330 333 335 337 338 339 343 345 347 349 350 346 348 349 348 349 350 350 355 355 354 356 355 354 359 362 364 363 361 362 362 364 363 359 355 354 354 353 355 356 356 355 352 355 356 354 359 358 359 358 357 358 360 357 362 365 360 361 364 365 365 361
328 329 330 331 335 337 338 339 341 344 346 348 351 350 352 351 352 348 350 350 351 350 350 355 355 357 363 363 363 363 362 362 362 363 360 355 353 351 351 353 357 357 355 352 352 356 356 355 356 359 360 359 359 361 360 363 362 362 361 362 364 365 362
327 327 328 329 331 334 338 338 338 340 343 344 347 351 352 353 354 351 352 354 350 350 356 353 354 356 359 361 362 363 362 363 360 358 357 355 352 351 351 350 353 357 355 352 350 351 356 356 355 356 361 359 359 360 361 361 361 362 362 361 362 364 364
326 327 328 328 328 329 333 337 337 337 338 340 343 346 349 351 351 349 354 357 352 352 352 352 354 353 356 359 360 360 361 361 359 355 356 354 351 350 350 349 348 353 354 353 349 348 353 355 357 359 359 356 358 359 360 360 361 362 360 360 361 363 362
326 325 326 328 328 328 328 331 335 336 337 338 339 341 346 349 349 351 354 353 350 355 356 357 355 355 355 357 359 361 361 361 359 356 355 354 352 349 348 348 347 347 352 353 350 348 347 353 353 353 356 358 360 360 361 363 363 364 363 359 359 360 360
326 325 325 325 326 327 329 329 330 332 333 333 336 340 343 344 345 352 354 353 353 355 353 357 361 358 356 359 354 357 358 359 361 358 355 355 354 351 348 348 348 346 346 351 352 348 346 347 353 354 353 357 358 357 358 361 362 365 365 362 359 358 358
325 324 325 325 326 326 327 329 330 330 330 330 331 335 339 340 341 346 351 352 352 353 353 355 354 354 357 354 355 358 357 360 362 361 360 357 360 357 352 348 347 349 348 349 350 350 347 345 346 352 353 353 356 357 356 359 361 363 365 364 360 356 355
321 322 324 324 325 326 326 327 330 330 330 330 329 330 334 336 338 342 347 351 354 355 355 357 357 357 355 352 355 359 362 362 361 362 362 361 361 359 357 353 352 353 351 350 348 348 349 348 345 348 353 354 355 356 353 351 356 359 361 363 363 359 354
321 321 322 323 324 325 326 327 329 330 330 330 329 329 331 334 335 337 339 344 348 351 355 355 356 358 357 354 357 358 362 365 366 365 364 362 361 363 361 359 356 351 350 349 349 352 353 352 349 347 349 353 355 355 352 349 350 357 348 352 362 362 354
321 321 322 323 325 325 327 327 328 329 329 330 330 329 330 332 335 335 336 339 343 348 354 355 354 356 356 357 358 361 362 363 363 364 364 365 363 362 363 362 359 357 360 356 353 357 359 355 350 347 347 349 353 355 353 351 348 345 337 338 344 359 359
321 322 322 323 323 325 326 326 327 327 328 328 329 330 330 331 333 335 336 336 339 342 347 350 355 351 353 354 356 357 357 359 364 365 364 364 365 364 364 363 362 362 361 357 355 361 355 353 354 355 349 346 348 351 355 354 346 333 333 335 336 346 361
321 322 322 323 324 325 324 325 326 328 328 328 328 328 330 330 331 334 337 337 338 340 341 346 351 354 353 353 351 354 357 356 359 362 363 364 364 365 365 365 363 361 360 356 358 358 361 362 356 356 356 352 351 347 349 354 343 330 330 333 333 334 349
319 320 322 323 324 324 326 326 326 327 329 331 329 328 331 332 331 334 338 340 341 338 339 341 346 350 351 352 353 353 354 357 356 358 362 364 363 364 363 363 363 361 360 359 359 360 359 359 361 360 363 359 356 356 351 354 346 329 327 329 330 332 340
318 320 320 321 323 325 326 326 326 327 328 328 329 330 330 330 330 333 337 338 338 339 341 341 343 346 346 347 351 353 354 353 355 355 357 358 360 363 362 361 361 361 362 357 357 358 359 359 360 361 361 360 358 357 354 353 338 326 325 325 326 329 335
316 317 318 319 320 322 324 325 325 326 327 329 330 328 330 330 330 330 333 335 335 337 338 338 340 341 341 341 343 345 347 350 350 353 356 357 357 358 360 359 362 361 361 361 357 358 359 361 361 360 360 361 360 357 356 355 334 324 323 323 324 327 350
316 317 318 320 318 319 323 324 324 327 329 329 329 327 329 331 329 330 330 332 333 335 335 336 337 338 339 339 338 340 343 345 349 352 354 355 356 356 354 355 355 359 361 360 360 360 361 357 357 363 362 361 361 360 360 358 343 322 320 320 322 330 356
317 318 317 318 320 320 322 322 322 323 325 328 329 329 330 331 330 329 330 330 330 331 334 334 334 336 338 337 338 340 342 345 347 349 350 352 353 352 351 352 354 352 351 355 355 352 355 356 353 354 354 357 357 356 361 359 348 318 317 318 319 335 358
316 316 317 318 318 320 320 321 322 322 323 324 325 328 330 331 332 329 330 330 329 330 332 331 332 335 334 335 338 339 341 347 347 346 346 348 349 350 351 349 352 355 356 356 356 357 357 358 355 355 358 358 357 352 355 359 352 316 317 316 317 335 360
316 316 317 317 319 320 320 323 322 322 321 320 323 326 328 329 330 330 331 331 330 331 332 332 332 335 337 338 338 339 342 344 344 345 343 346 347 351 354 356 353 353 353 354 355 355 357 359 357 356 356 357 355 353 357 355 356 349 313 315 314 321 360
317 317 317 317 319 321 320 321 321 320 320 322 324 323 326 328 327 329 330 330 330 331 332 332 334 334 335 336 337 337 339 341 342 341 342 344 348 349 351 353 351 352 352 350 352 356 357 355 357 357 356 357 359 360 359 359 359 353 319 312 312 316 330
317 317 318 320 320 320 320 319 321 321 321 323 323 324 325 326 327 328 330 329 329 331 332 333 333 334 334 334 334 336 338 340 342 342 342 346 347 349 348 351 352 350 350 350 352 353 354 355 355 356 356 358 358 362 361 361 350 358 329 315 311 312 316
317 316 317 318 319 320 319 319 319 320 322 323 324 324 324 325 326 328 329 329 331 332 333 332 333 333 333 334 333 334 336 338 340 341 341 344 345 345 346 349 351 351 350 348 348 350 352 354 355 355 355 356 361 362 361 363 363 336 351 319 313 311 311
317 317 317 317 318 318 319 319 320 320 322 322 326 327 326 326 326 327 328 330 333 333 334 334 333 333 332 333 334 333 334 335 336 338 343 343 344 344 345 347 348 349 348 346 347 349 350 352 354 354 353 354 356 359 362 363 361 343 338 339 315 312 310
315 316 316 316 316 319 318 318 318 319 321 322 324 326 328 327 326 326 327 331 333 333 332 332 332 332 331 331 331 332 332 333 335 337 340 341 342 343 344 346 348 348 348 347 348 350 349 350 352 353 353 355 355 356 357 361 361 361 342 330 326 315 311
315 315 315 316 317 317 317 317 318 318 319 321 323 324 326 327 327 326 327 330 332 332 331 331 331 330 331 330 330 329 330 330 332 334 338 339 340 341 343 344 345 346 348 349 350 351 351 351 352 353 354 354 353 354 356 357 358 358 360 342 334 324 315
313 314 314 314 316 316 316 317 316 317 317 318 321 322 323 324 326 327 327 328 329 331 331 331 330 329 330 330 329 329 330 331 331 332 333 336 339 340 341 341 343 345 345 345 346 348 349 351 351 351 351 350 353 355 355 354 354 356 358 361 357 348 338
312 313 314 315 315 316 316 316 316 316 317 317 319 321 322 323 324 326 327 327 327 329 330 329 328 327 328 329 329 329 329 329 331 332 331 331 333 334 337 339 341 341 343 345 343 341 342 344 345 345 346 348 350 352 353 353 352 353 355 357 360 359 356
312 312 313 313 314 315 315 316 316 316 317 318 320 320 321 322 323 325 327 327 328 329 328 327 327 328 328 328 329 329 330 330 330 328 328 330 333 333 335 336 337 338 339 342 343 341 339 338 338 339 342 344 346 347 348 350 351 355 341 353 330 344 350
312 312 312 314 314 315 316 316 315 316 317 318 320 320 322 322 324 325 325 327 328 328 327 327 326 326 327 328 328 329 329 328 327 328 330 329 330 331 333 333 322 329 338 339 338 327 316 316 332 336 339 338 341 345 345 348 353 333 319 314 312 311 312
311 312 312 313 314 314 315 315 316 316 316 318 320 320 321 322 323 325 325 327 328 327 327 326 324 323 324 326 326 326 327 328 328 330 331 331 331 332 330 331 334 313 310 319 325 320 312 306 305 306 309 325 331 334 325 323 319 312 310 309 308 308 307
312 312 313 314 314 314 314 314 315 316 316 318 319 320 321 321 322 324 325 327 327 327 327 325 324 321 321 323 324 325 326 327 328 329 329 329 330 330 329 328 328 331 317 305 311 312 308 305 304 303 303 305 311 324 333 324 314 310 309 308 306 305 305
Wind_Speed
9 7 3 3 3 5 7 6 14 9 10 12 13 15 15 14 13 13 14 15 16 16 15 15 15 13 14 12 12 11 11 10 9 9 9 8 7 8 8 8 8 7 7 7 6 6 6 5 6 7 7 7 6 6 6 5 5 4 4 4 4 3 5
9 9 6 6 6 5 8 8 14 9 7 8 10 12 13 14 13 14 13 15 17 16 16 15 15 13 13 13 12 12 12 12 10 9 9 8 8 7 8 8 8 8 7 6 7 6 7 7 6 6 6 7 7 7 7 6 6 6 5 5 4 4 4
6 6 5 5 4 6 8 11 13 7 8 9 9 11 12 12 13 13 13 15 16 16 15 15 15 14 13 13 12 13 13 12 12 12 12 11 11 11 9 8 9 8 9 8 7 7 7 8 7 7 7 7 8 7 7 7 7 6 5 5 5 5 4
7 7 8 7 5 4 8 8 7 7 12 10 12 13 12 13 14 12 13 15 16 16 17 16 15 15 13 13 13 13 13 13 13 12 13 11 11 11 9 9 8 8 8 9 8 7 7 7 8 7 7 7 6 7 8 7 8 7 7 6 5 5 5
6 6 7 7 7 9 4 7 3 3 3 2 2 3 3 7 7 11 13 14 16 17 17 17 15 14 13 13 12 11 12 14 13 12 12 11 10 11 10 11 10 10 8 9 9 8 7 8 9 8 8 7 8 7 8 7 7 8 7 7 6 6 6
8 6 5 8 8 8 9 7 4 4 8 6 2 1 5 8 9 10 14 14 13 15 14 16 16 15 14 15 13 12 13 13 12 12 11 11 11 11 12 11 11 11 11 10 10 9 9 9 9 9 10 9 9 9 9 8 8 8 8 7 6 6 6
10 10 9 5 5 6 6 7 7 4 6 6 6 8 10 10 13 16 11 14 16 13 14 14 14 15 13 13 13 13 14 14 13 14 12 13 13 12 12 11 11 10 10 9 10 10 11 10 10 10 10 10 9 9 8 8 8 8 7 7 7 6 6
11 10 10 10 8 7 6 8 9 12 11 9 5 8 12 11 11 12 12 14 13 13 12 15 15 13 14 13 12 15 14 14 13 14 13 14 13 13 12 11 11 10 10 11 11 10 11 11 11 10 10 10 9 8 9 8 8 9 8 8 8 8 7
12 12 11 12 11 8 7 10 10 11 12 12 6 1 3 5 6 8 11 10 9 13 16 16 15 14 13 13 14 15 14 14 14 13 15 15 13 14 14 13 12 12 11 11 11 11 11 11 12 10 11 10 9 9 9 8 9 9 8 8 9 9 8
12 12 12 12 11 11 10 10 12 11 11 10 9 8 10 9 6 6 9 9 9 9 10 13 13 12 12 14 15 16 15 14 13 15 15 15 14 15 15 14 13 12 13 13 11 12 11 11 11 11 10 11 10 11 10 10 10 10 10 9 9 9 9
11 12 12 13 13 12 12 14 14 12 10 9 8 9 8 8 7 8 5 3 6 15 9 9 8 9 13 16 15 15 15 16 15 15 15 15 14 16 15 15 14 13 14 13 13 12 12 11 11 10 11 12 12 12 12 12 11 11 11 10 10 10 10
10 11 12 13 14 15 15 13 12 13 12 10 9 9 9 8 9 9 9 9 2 2 8 11 6 7 9 12 12 12 14 14 15 16 16 16 15 16 15 14 14 14 14 14 14 13 13 13 12 11 12 12 13 13 12 12 11 11 11 12 11 10 10
10 10 11 13 13 12 12 14 15 14 14 13 12 12 10 11 11 9 9 11 11 10 1 1 6 11 17 13 13 12 11 14 14 14 15 15 14 14 14 14 15 15 14 14 14 14 14 14 14 12 13 13 13 14 13 13 13 11 12 12 11 11 11
11 12 12 11 13 14 14 14 14 14 13 14 13 14 13 12 11 9 6 5 7 8 10 7 6 7 13 8 10 7 11 11 12 13 12 12 12 13 14 14 15 13 12 12 15 15 15 15 15 14 13 14 14 13 13 13 13 13 12 12 12 12 12
11 12 12 13 13 13 13 14 13 13 13 13 14 14 13 11 10 11 9 8 4 5 9 8 7 10 8 5 9 7 11 12 12 11 11 11 11 12 13 13 12 12 12 12 13 14 14 15 15 14 14 14 14 14 13 13 13 12 13 13 13 12 13
11 12 12 13 13 12 12 12 13 13 13 13 13 13 13 10 11 10 11 10 8 8 8 11 6 6 5 6 9 12 9 8 9 9 10 10 11 11 12 13 13 14 14 14 14 12 12 12 13 15 15 15 14 14 13 13 12 12 16 15 12 13 12
10 11 11 12 11 12 12 12 13 13 13 13 13 13 11 11 11 10 11 11 12 10 5 9 9 6 6 5 7 13 9 8 9 9 9 10 11 11 11 12 12 12 11 12 12 11 10 12 14 15 15 16 15 15 14 13 12 15 17 16 16 14 13
10 10 11 11 11 11 12 12 13 13 13 13 13 12 11 11 11 11 10 10 12 12 11 9 7 9 8 9 11 10 15 11 9 9 10 10 11 11 11 11 12 11 12 13 14 11 13 14 14 13 15 14 15 16 15 14 15 15 18 18 17 14 12
9 9 9 10 11 11 12 12 12 12 12 12 12 11 12 12 11 11 9 9 8 9 12 12 8 7 7 8 8 12 11 15 13 10 11 10 11 11 11 11 12 13 13 15 14 13 13 13 14 15 14 15 14 15 16 15 16 15 17 19 19 18 15
7 8 9 10 10 10 10 10 10 10 11 10 11 12 10 11 11 10 10 8 6 8 9 10 10 9 8 3 2 5 10 11 14 13 10 9 10 10 11 12 12 13 13 12 12 13 13 15 15 14 13 14 14 13 14 14 14 18 18 18 19 19 15
6 7 8 8 9 9 9 10 10 10 11 10 10 10 10 10 11 10 9 10 9 7 6 9 9 8 9 10 9 6 6 8 9 13 14 12 11 9 11 11 12 13 12 12 12 13 13 13 14 14 15 15 15 15 16 15 13 17 20 19 20 20 16
6 7 8 7 8 7 8 9 9 10 9 9 9 10 10 10 10 11 10 9 9 9 8 9 9 9 8 8 9 9 9 9 8 9 9 10 13 12 11 11 9 11 9 11 11 9 12 12 13 14 15 16 16 15 16 16 15 15 18 19 19 20 12
6 6 7 6 7 7 8 8 9 9 8 8 8 10 10 9 10 10 10 10 9 10 10 10 10 11 11 11 10 10 10 10 11 11 12 8 6 7 9 11 10 10 7 8 10 10 10 11 11 9 12 15 15 15 14 14 13 15 17 18 19 14 10
5 6 7 8 6 7 8 9 9 8 8 8 7 8 8 8 9 10 10 10 10 10 10 10 10 11 12 12 12 12 12 11 11 12 13 13 11 7 5 4 3 3 2 3 3 6 10 4 8 11 15 16 16 15 14 14 11 15 17 19 18 16 11
6 7 6 7 8 9 9 9 8 9 8 8 8 8 8 7 8 9 9 9 10 10 9 10 10 10 11 12 12 11 10 9 9 11 11 11 11 7 2 3 4 6 5 3 4 7 8 7 7 8 9 6 10 14 18 17 10 12 15 17 19 16 10
6 7 7 7 7 9 9 8 8 8 9 10 9 9 9 7 7 9 8 9 9 9 9 10 10 10 10 10 11 10 10 9 8 8 8 8 8 8 6 4 6 7 9 7 5 7 8 9 8 8 8 8 9 9 4 8 15 9 9 16 17 19 12
6 6 8 9 9 9 7 7 8 9 10 9 8 9 9 8 8 8 9 9 9 9 9 8 9 10 10 10 11 11 11 11 9 10 11 9 7 6 5 5 5 4 4 7 7 8 7 9 8 10 10 9 7 5 6 7 8 4 3 10 13 19 16
7 8 7 8 9 8 8 8 9 9 10 9 10 10 9 10 10 9 9 9 9 10 9 9 9 9 10 11 11 11 11 12 11 10 8 6 5 7 5 4 4 4 5 5 5 8 10 11 10 10 9 8 9 7 7 7 9 8 15 18 15 15 20
8 8 8 8 9 9 10 9 10 10 10 10 10 10 9 10 10 10 9 9 10 9 9 10 10 10 10 10 11 10 10 10 12 11 8 6 6 6 7 6 5 6 6 6 7 8 9 10 10 11 11 10 7 7 8 6 4 9 7 14 18 21 20
8 8 8 8 8 9 11 11 10 11 11 10 9 9 9 9 10 10 10 11 9 9 9 10 10 10 11 10 10 10 10 10 10 10 9 9 7 7 8 7 6 6 6 8 8 8 8 6 8 10 12 12 10 11 8 5 6 8 12 10 16 19 22
9 9 9 9 9 9 10 11 13 12 12 10 11 10 9 9 10 11 11 10 8 9 9 9 9 10 11 11 11 10 10 10 9 9 9 8 8 9 8 9 8 6 4 6 7 9 9 8 7 10 11 11 11 9 10 7 4 5 11 16 13 14 15
9 10 10 10 10 10 10 11 12 13 13 12 11 11 10 9 10 12 11 10 9 9 9 8 9 10 11 11 10 11 11 11 10 9 9 10 9 8 7 7 8 7 5 4 6 8 9 8 7 8 9 11 12 10 10 10 8 7 5 6 9 10 14
10 10 11 11 11 11 11 11 11 12 13 14 13 11 11 12 10 11 11 11 11 9 9 8 8 8 9 11 11 11 10 9 8 9 9 9 8 7 8 7 6 6 7 6 5 4 5 6 7 7 9 9 8 8 8 9 9 6 6 6 6 6 6
10 10 10 12 12 12 12 11 11 12 13 13 13 12 12 12 12 11 11 12 12 11 10 9 8 8 9 11 11 10 9 8 8 8 8 8 9 9 9 9 8 7 6 7 6 4 4 5 6 5 6 8 8 8 8 7 7 8 8 7 6 3 4
9 11 11 12 12 12 12 12 13 13 14 13 13 13 13 13 12 12 12 12 11 11 11 10 9 8 10 10 10 9 8 7 7 8 8 8 8 7 8 9 10 10 10 9 8 7 4 4 6 6 6 5 6 5 6 7 9 8 1 1 4 2 2
9 11 12 11 11 12 13 13 13 13 14 13 13 13 13 13 13 12 12 12 11 12 12 11 10 9 9 9 9 9 9 9 9 8 7 7 7 8 8 8 11 11 11 10 9 11 13 8 7 7 6 7 7 5 6 7 8 7 7 8 8 9 10
9 9 10 12 12 12 13 13 14 15 15 14 14 13 13 13 13 12 12 12 11 12 12 11 10 10 9 9 8 9 10 9 9 8 8 8 7 7 8 9 8 9 14 14 12 13 14 15 16 15 12 8 8 8 10 13 15 16 15 15 15 15 13
9 9 10 10 10 12 13 13 14 14 15 15 15 14 13 14 13 12 13 13 12 11 11 11 9 10 11 9 9 9 9 9 9 9 9 8 8 8 7 8 9 9 8 15 15 15 17 16 16 17 15 14 12 9 8 12 15 17 17 17 15 14 14
Wind_Direction
116 105 171 265 233 184 141 204 269 218 178 185 191 195 189 191 192 183 181 179 182 180 180 179 181 182 185 187 189 188 194 192 193 197 194 201 199 195 197 199 197 196 194 194 193 194 185 197 185 186 172 180 183 174 181 187 196 200 200 197 216 195 197
106 117 146 186 219 248 157 198 224 206 186 194 189 198 195 192 192 188 184 181 184 183 181 181 182 185 187 188 187 190 190 193 196 192 196 197 201 199 198 198 199 196 200 196 186 198 187 186 190 188 182 181 191 184 182 189 195 201 200 196 210 205 196
94 108 78 61 115 207 163 200 225 187 200 197 198 209 207 200 194 190 184 182 185 184 184 183 184 186 188 188 190 191 190 194 193 194 198 196 197 202 197 196 202 195 197 197 192 192 191 185 188 188 195 195 195 188 193 191 196 197 200 193 206 204 201
78 64 60 47 13 356 142 202 195 195 191 197 200 201 211 209 194 193 190 187 186 186 184 184 186 189 188 188 192 190 193 195 196 198 200 201 193 201 197 200 200 201 195 200 196 200 187 188 184 189 194 197 207 195 201 191 201 196 200 195 209 206 210
61 84 59 44 39 1 24 54 34 167 213 212 259 169 92 309 236 202 202 197 195 191 187 187 189 190 187 190 192 192 196 194 197 200 202 204 200 195 204 203 196 209 197 197 200 193 200 188 192 189 190 200 202 202 205 202 206 194 202 201 213 209 214
43 50 71 62 54 23 22 86 133 202 194 181 161 235 148 209 236 225 217 212 205 191 192 191 193 184 190 190 193 194 191 195 197 199 203 203 203 201 201 207 204 201 203 201 200 195 194 201 199 195 195 196 207 203 201 200 207 203 199 208 209 216 218
44 41 34 44 62 55 28 27 47 41 188 146 151 199 218 201 216 217 203 219 207 194 194 195 199 191 192 190 196 193 190 194 195 197 199 203 201 208 204 202 211 204 208 196 207 199 194 202 203 201 202 208 200 212 200 200 204 204 201 202 210 220 219
49 44 40 40 39 57 54 16 22 31 41 134 157 215 203 221 218 228 216 187 213 196 211 203 197 203 194 193 195 195 193 196 194 196 199 202 201 205 205 205 201 209 207 203 201 210 202 199 205 204 204 206 207 212 213 196 205 209 206 205 207 214 210
55 48 44 32 33 51 62 41 28 35 34 70 123 165 218 213 247 231 212 249 219 202 200 203 200 201 197 199 190 195 194 198 195 196 198 202 203 204 206 202 202 201 206 210 203 201 214 201 207 201 205 209 203 205 215 210 202 212 217 209 207 213 225
50 51 49 47 35 29 50 54 44 32 26 28 42 55 46 36 9 358 356 333 292 238 195 223 207 195 210 201 194 194 194 195 200 199 199 204 204 206 207 205 199 198 204 207 215 200 203 214 209 203 200 207 206 202 209 209 212 209 210 217 212 212 218
60 56 51 48 44 35 32 40 43 40 31 27 26 43 47 41 38 28 22 147 285 283 258 222 201 209 202 201 200 198 196 196 201 201 204 206 207 207 208 211 204 197 203 205 212 212 199 204 213 208 201 206 206 206 206 209 210 210 212 210 213 215 216
67 56 54 51 47 42 34 30 36 34 28 29 28 35 45 35 25 28 3 353 313 118 312 289 248 227 229 206 209 204 199 202 201 205 205 209 211 209 210 211 214 202 197 208 209 213 211 199 204 210 207 208 209 209 207 209 210 209 213 212 210 210 215
70 64 56 49 50 52 46 38 34 29 21 18 19 25 36 32 28 42 11 357 4 335 25 157 262 232 208 174 213 206 205 205 209 208 208 207 214 215 210 213 213 214 205 201 210 211 214 207 202 204 209 208 212 212 209 208 211 210 211 216 216 210 212
79 72 62 53 48 45 44 43 39 34 28 21 16 16 25 25 21 13 48 33 342 345 340 352 339 335 287 229 187 191 207 220 216 213 214 211 208 219 221 215 216 214 216 207 204 213 215 217 207 202 207 209 211 214 213 207 211 211 212 213 216 214 213
66 64 62 54 50 46 41 41 38 36 33 29 22 18 20 16 7 1 11 21 31 34 326 310 343 359 324 279 271 213 203 212 213 212 215 218 212 212 221 226 221 217 216 217 216 211 217 219 219 207 205 209 210 212 215 213 209 211 209 210 212 218 218
54 55 54 53 46 44 42 38 36 33 34 31 27 19 16 16 12 8 359 1 7 14 356 316 332 354 18 340 288 256 240 213 220 215 210 214 218 214 215 223 226 224 219 220 221 219 214 221 222 222 210 208 209 212 215 217 215 206 205 205 208 209 218
48 46 49 49 44 39 37 37 30 28 27 28 28 21 15 13 12 12 6 357 357 359 8 325 330 346 341 347 329 298 265 235 224 224 217 212 217 217 219 221 224 227 227 223 226 226 218 220 225 225 225 216 211 211 215 217 220 198 194 201 208 211 212
52 38 42 42 40 35 31 33 33 22 20 23 22 25 18 10 12 13 9 4 358 348 349 345 359 357 4 3 333 328 306 272 242 227 223 221 217 217 218 220 221 227 225 224 223 223 227 224 224 229 229 227 221 216 214 220 218 196 190 196 201 210 216
61 46 41 35 38 34 28 27 28 22 16 17 13 23 18 15 12 9 7 8 359 356 350 348 351 357 5 11 339 318 310 289 263 238 231 228 225 224 223 220 221 222 225 225 222 222 219 226 228 225 229 233 232 228 221 219 211 194 190 192 196 203 216
36 47 41 37 31 33 27 24 22 20 12 17 9 18 15 18 7 7 1 0 21 17 357 354 354 354 349 328 251 282 304 301 283 268 248 242 239 231 229 228 226 227 226 227 227 223 224 223 224 226 225 230 235 237 236 231 201 188 188 193 194 199 204
60 52 39 37 32 31 28 22 15 15 5 14 8 16 10 12 5 2 6 359 6 8 17 6 0 358 349 336 326 320 304 320 314 303 290 267 247 243 238 234 235 234 237 236 228 225 226 229 226 225 226 227 228 233 237 238 215 183 188 191 193 198 199
48 47 47 25 22 29 28 20 13 7 1 0 359 14 5 8 2 358 2 0 4 359 16 15 1 357 358 341 337 337 337 329 304 284 285 293 289 269 251 244 250 253 260 252 253 256 240 224 233 233 229 228 229 231 233 235 219 187 190 189 192 192 197
35 30 36 31 13 12 27 20 360 358 349 359 5 8 0 358 358 353 358 357 2 3 9 10 359 351 348 345 341 343 339 335 326 309 302 294 275 293 318 333 327 317 311 319 318 307 307 296 275 273 252 242 233 234 238 237 218 183 185 190 190 183 200
28 29 16 12 355 7 17 6 347 345 339 344 8 7 352 353 353 351 354 353 354 359 2 6 2 348 343 340 343 341 339 334 327 322 316 300 310 351 50 338 318 272 267 293 329 296 288 349 313 315 318 298 272 249 241 245 226 179 185 186 181 185 197
3 15 10 4 355 4 2 350 338 328 331 339 355 358 337 352 351 350 351 351 349 349 357 357 353 346 340 336 337 332 329 324 321 320 319 328 328 323 23 302 312 322 323 297 262 251 245 226 213 216 230 264 298 322 295 264 249 178 187 185 179 190 200
5 356 353 345 8 11 339 332 327 334 340 338 351 333 329 340 346 344 343 345 341 346 350 351 344 340 333 330 329 329 324 319 319 314 322 330 344 353 336 356 351 350 344 336 295 278 285 280 273 255 247 219 217 225 253 319 318 331 225 184 186 191 198
11 8 348 343 1 345 329 335 338 337 327 336 335 324 328 339 338 334 333 333 332 340 344 342 338 334 333 329 329 332 327 328 335 334 333 338 346 339 328 334 342 336 284 280 298 288 268 272 260 258 267 263 262 251 227 200 176 192 250 261 209 198 203
5 2 353 355 338 331 342 334 337 328 327 337 328 331 337 336 325 322 322 322 325 333 333 335 335 333 331 329 327 328 332 331 330 328 331 335 333 325 315 312 299 278 276 274 272 280 280 277 272 263 253 243 240 227 250 232 208 201 178 183 209 225 212
356 353 351 338 332 345 344 336 331 330 333 330 332 332 323 319 313 310 311 310 319 325 329 331 330 332 329 326 324 328 327 325 323 327 329 332 316 297 291 287 270 274 283 278 276 270 269 266 270 268 267 269 255 241 233 229 182 216 205 185 189 197 211
346 342 338 336 341 343 342 329 329 328 326 326 325 324 319 308 305 302 301 303 314 318 322 323 329 328 326 324 325 326 322 321 324 325 317 317 323 311 297 282 273 270 279 292 291 280 265 260 263 268 271 268 265 258 252 231 208 197 222 210 198 204 204
332 333 332 336 336 339 332 329 324 320 317 319 319 317 316 309 299 299 296 299 302 308 312 315 321 326 323 323 323 321 320 322 320 314 308 322 325 313 305 296 286 271 262 275 266 263 266 264 258 261 263 263 262 262 263 260 227 211 203 217 226 214 209
323 331 327 329 329 330 327 318 315 313 313 313 313 315 314 311 306 298 297 298 293 290 293 305 318 320 319 318 318 319 319 319 318 316 325 328 316 305 294 292 295 289 280 270 282 282 274 270 273 269 263 262 263 264 269 266 271 256 236 206 233 233 230
318 319 321 321 326 325 314 314 312 311 312 311 313 312 308 304 300 295 293 290 289 286 286 293 306 308 312 314 315 314 312 313 318 327 318 307 307 314 317 308 301 295 290 277 281 314 324 316 305 290 277 267 266 265 266 269 266 264 257 230 218 203 216
310 312 316 319 317 318 312 308 307 306 305 305 305 304 302 301 299 298 296 293 291 292 294 291 288 304 311 311 309 305 310 311 316 313 312 322 324 320 317 311 308 303 296 296 299 302 297 298 300 311 319 313 302 290 280 275 274 270 262 254 243 205 160
310 311 313 311 314 313 309 312 310 308 304 302 303 302 300 299 299 300 297 291 287 286 284 283 290 304 305 304 301 301 301 303 312 315 317 312 308 306 310 314 315 317 312 306 302 292 285 279 282 279 273 266 275 294 299 291 288 281 277 77 130 195 219
306 306 306 306 305 306 307 307 308 309 308 304 300 297 295 294 293 293 291 290 286 283 279 283 291 297 298 299 300 301 313 322 316 310 307 306 310 312 308 312 306 286 290 295 287 282 280 264 258 262 279 280 270 267 273 276 280 306 301 274 253 230 213
301 300 301 307 305 306 311 310 309 309 308 308 304 299 292 288 287 287 287 283 279 275 272 274 280 284 286 290 295 316 318 310 308 314 311 307 306 309 310 306 305 271 239 242 253 267 273 276 273 270 261 252 278 272 261 272 282 286 283 279 271 268 260
303 304 305 301 303 306 306 308 312 314 313 309 302 294 291 288 286 287 286 285 279 273 275 276 274 276 281 288 304 314 310 308 307 305 305 308 309 306 302 304 305 306 251 229 238 246 255 262 268 269 265 253 240 256 281 260 257 261 267 272 278 272 265